This is the latest recevied weather packets stored in our database for station/object KE8CZD. If no packets are shown the sender has not sent any weather packets the latest 1 day(s).
| Time | Temp. | Humidity | Pressure | Rain* | Wind** | Luminosity | Snow |
|---|---|---|---|---|---|---|---|
| 1778075686 | 8.89° C | 55% | 1008.8 hPa | 0 mm | - | - | - |
| 1778074604 | 8.33° C | 58% | 1008.5 hPa | 0 mm | - | - | - |
| 1778073885 | 8.33° C | 62% | 1008.4 hPa | 0 mm | - | - | - |
| 1778072806 | 7.78° C | 68% | 1008.3 hPa | 0 mm | - | - | - |
| 1778072084 | 7.78° C | 73% | 1008 hPa | 0 mm | - | - | - |
| 1778071726 | 7.78° C | 73% | 1007.8 hPa | 0 mm | - | - | - |
| 1778069925 | 7.22° C | 75% | 0 hPa | 0 mm | - | - | - |
| 1778069564 | 7.22° C | 74% | 1007.7 hPa | 0 mm | - | - | - |
| 1778068126 | 7.78° C | 72% | 1007.3 hPa | 0 mm | - | - | - |
| 1778067404 | 7.22° C | 76% | 1007.3 hPa | 0 mm | - | - | - |
| 1778067045 | 6.67° C | 76% | 1007.3 hPa | 0 mm | - | - | - |
| 1778066685 | 6.67° C | 75% | 1007.3 hPa | 0 mm | - | - | - |
| 1778066324 | 6.67° C | 74% | 1007.3 hPa | 0 mm | - | - | - |
| 1778064164 | 7.22° C | 69% | 0 hPa | 0 mm | - | - | - |
| 1778063805 | 7.22° C | 68% | 1006.6 hPa | 0 mm | - | - | - |
| 1778063084 | 7.22° C | 65% | 1006.6 hPa | 0 mm | - | - | - |
| 1778062005 | 7.22° C | 62% | 1006.5 hPa | 0 mm | - | - | - |
| 1778061644 | 7.78° C | 62% | 1006.2 hPa | 0 mm | - | - | - |
| 1778060924 | 7.78° C | 61% | 1005.9 hPa | 0 mm | - | - | - |
| 1778060564 | 7.78° C | 61% | 1005.8 hPa | 0 mm | - | - | - |
| 1778059484 | 7.78° C | 59% | 1005.9 hPa | 0 mm | - | - | - |
| 1778059124 | 7.78° C | 58% | 1006 hPa | 0 mm | - | - | - |
| 1778058766 | 7.78° C | 58% | 1005.8 hPa | 0 mm | - | - | - |
| 1778058404 | 7.78° C | 57% | 1005.8 hPa | 0 mm | - | - | - |
| 1778058044 | 7.78° C | 57% | 1005.7 hPa | 0 mm | - | - | - |
* Rain latest hour (hover to see other rain measurements)
** Current wind speed in m/s (hover to see current wind gust speed)